User: anonymous   Login
Location: Clatteringshaws Loch
(55.0508°N, 4.2860°W)
Time: 05:51:35
(UTC+01:00)
Language:

Sapphire - Orbit

View from above orbital plane
View from above orbital plane
View from above satellite
View from above satellite

Ground track
Ground track

The orbit data is extracted from the following two-line orbital elements,

1 26932U 01043D   17204.57963441 -.00000056 +00000-0 +10448-4 0  9996
2 26932 067.0568 359.6840 0009114 263.3816 096.6248 14.30253592825504
Epoch (UTC): 23 July 2017 13:54:40
Eccentricity: 0.0009114
inclination: 67.0568°
perigee height: 784 km
apogee height: 797 km
right ascension of ascending node: 359.6840°
argument of perigee: 263.3816°
revolutions per day: 14.30253592
mean anomaly at epoch: 96.6248°
orbit number at epoch: 82550

The dashed part of the orbit path shows where the satellite is in the earth's shadow,  

DLR